TimeCDT,TemperatureF,Dew PointF,Humidity,Sea Level PressureIn,VisibilityMPH,Wind Direction,Wind SpeedMPH,Gust SpeedMPH,PrecipitationIn,Events,Conditions,WindDirDegrees,DateUTC
12:16 AM,39.2,37.4,93,30.19,10.0,North,11.5,-,N/A,,Overcast,360,2013-04-04 05:16:00
12:29 AM,39.2,37.4,93,30.19,10.0,North,13.8,-,N/A,,Overcast,360,2013-04-04 05:29:00
12:52 AM,39.9,37.9,93,30.19,10.0,NNW,13.8,-,N/A,,Overcast,340,2013-04-04 05:52:00
1:17 AM,39.2,37.4,93,30.19,10.0,North,12.7,-,N/A,,Overcast,350,2013-04-04 06:17:00
1:52 AM,39.0,37.9,96,30.19,6.0,North,10.4,-,N/A,,Overcast,350,2013-04-04 06:52:00
2:28 AM,39.2,37.4,93,30.18,5.0,North,11.5,-,N/A,,Overcast,350,2013-04-04 07:28:00
2:36 AM,39.2,37.4,93,30.18,6.0,North,12.7,-,N/A,,Overcast,360,2013-04-04 07:36:00
2:52 AM,39.0,37.9,96,30.18,8.0,North,11.5,-,N/A,,Overcast,360,2013-04-04 07:52:00
3:02 AM,39.2,37.4,93,30.17,10.0,North,13.8,-,N/A,,Overcast,350,2013-04-04 08:02:00
3:11 AM,37.4,37.4,100,30.18,10.0,North,13.8,-,N/A,,Overcast,350,2013-04-04 08:11:00
3:33 AM,39.2,37.4,93,30.17,10.0,North,15.0,-,N/A,,Overcast,350,2013-04-04 08:33:00
3:43 AM,39.2,37.4,93,30.17,10.0,North,13.8,-,N/A,,Overcast,350,2013-04-04 08:43:00
3:52 AM,37.9,37.0,97,30.17,10.0,North,12.7,-,N/A,,Overcast,350,2013-04-04 08:52:00
4:18 AM,37.4,37.4,100,30.16,10.0,NNW,11.5,-,N/A,,Overcast,340,2013-04-04 09:18:00
4:38 AM,39.2,37.4,93,30.16,10.0,NNW,9.2,-,N/A,,Overcast,330,2013-04-04 09:38:00
4:50 AM,39.2,37.4,93,30.16,10.0,NNW,11.5,-,N/A,,Overcast,330,2013-04-04 09:50:00
4:52 AM,39.0,37.0,93,30.17,10.0,NW,11.5,-,N/A,,Overcast,320,2013-04-04 09:52:00
5:16 AM,39.2,37.4,93,30.16,10.0,NNW,11.5,-,N/A,,Overcast,330,2013-04-04 10:16:00
5:26 AM,39.2,37.4,93,30.16,10.0,NNW,12.7,-,N/A,,Overcast,330,2013-04-04 10:26:00
5:52 AM,39.0,36.0,89,30.17,10.0,NNW,12.7,-,N/A,,Overcast,340,2013-04-04 10:52:00
6:08 AM,39.2,35.6,87,30.17,10.0,NNW,11.5,-,N/A,,Overcast,340,2013-04-04 11:08:00
6:52 AM,39.0,36.0,89,30.18,10.0,North,13.8,-,N/A,,Overcast,350,2013-04-04 11:52:00
7:38 AM,37.4,37.4,100,30.19,9.0,North,10.4,-,N/A,,Overcast,350,2013-04-04 12:38:00
7:52 AM,37.9,37.0,97,30.21,9.0,NNW,11.5,-,N/A,,Overcast,340,2013-04-04 12:52:00
8:52 AM,39.0,36.0,89,30.22,10.0,NNW,12.7,-,N/A,,Overcast,340,2013-04-04 13:52:00
9:13 AM,39.2,37.4,93,30.22,10.0,NNW,10.4,-,N/A,,Overcast,340,2013-04-04 14:13:00
9:52 AM,39.9,36.0,86,30.24,10.0,NNW,10.4,-,N/A,,Overcast,340,2013-04-04 14:52:00
10:52 AM,41.0,36.0,82,30.25,10.0,NNW,11.5,-,N/A,,Overcast,330,2013-04-04 15:52:00
11:52 AM,42.1,36.0,79,30.25,10.0,NNW,11.5,-,N/A,,Overcast,330,2013-04-04 16:52:00
12:47 PM,44.6,37.4,76,30.24,10.0,NNW,10.4,-,N/A,,Overcast,340,2013-04-04 17:47:00
12:52 PM,46.0,37.9,73,30.24,10.0,NW,11.5,-,N/A,,Overcast,320,2013-04-04 17:52:00
1:52 PM,48.9,37.9,66,30.21,10.0,NNW,10.4,17.3,N/A,,Mostly Cloudy,330,2013-04-04 18:52:00
2:37 PM,51.8,39.2,62,30.19,10.0,North,9.2,-,N/A,,Scattered Clouds,350,2013-04-04 19:37:00
2:52 PM,53.1,39.9,61,30.17,10.0,NNW,6.9,-,N/A,,Partly Cloudy,340,2013-04-04 19:52:00
3:52 PM,55.9,39.9,55,30.14,10.0,North,8.1,-,N/A,,Clear,350,2013-04-04 20:52:00
4:52 PM,57.9,39.9,51,30.13,10.0,Variable,3.5,-,N/A,,Clear,0,2013-04-04 21:52:00
5:52 PM,60.1,41.0,49,30.11,10.0,North,6.9,-,N/A,,Clear,10,2013-04-04 22:52:00
6:52 PM,57.9,39.9,51,30.11,10.0,NE,6.9,-,N/A,,Clear,40,2013-04-04 23:52:00
7:52 PM,55.9,39.9,55,30.12,10.0,NNE,6.9,-,N/A,,Clear,30,2013-04-05 00:52:00
8:52 PM,52.0,39.9,63,30.14,10.0,ENE,4.6,-,N/A,,Clear,60,2013-04-05 01:52:00
9:52 PM,48.0,39.9,74,30.17,10.0,East,6.9,-,N/A,,Clear,90,2013-04-05 02:52:00
10:52 PM,46.0,39.9,79,30.18,10.0,East,8.1,-,N/A,,Clear,80,2013-04-05 03:52:00
11:52 PM,43.0,39.0,86,30.19,10.0,ESE,6.9,-,N/A,,Clear,120,2013-04-05 04:52:00